Weather in Thang Kwian

Thailand     12°47′23″N   101°39′00″E
temp.,
°C
wind,
m/s
gust,
m/s
humid.,
%
clouds,
%
prec.,
mm/h
press.,
hPa
HPBL,
m
28 september, tue
tue2801:00+25nne118683 0.1 100951
04:00+25ne118888 0.1 100853
07:00+25nne22865 0.5 1009114
10:00+31nne016423 0.1 1010818
13:00+30ssw216927 2.1 1008849
16:00+30ssw2267100 1.1 1006834
19:00+27ssw1183100 3.1 100760
22:00+26ne1185100 0.5 101033
29 september, wed
wed2901:00+26nw118797 0.6 100939
04:00+25nnw11905 0.2 100746
07:00+26n118919 0.2 100986
10:00+31s106657 0.1 1010672
13:00+32s336046 0.5 10071306
16:00+30sw44695 0.3 1005598
19:00+27sw23827 1.0 1007164
22:00+27sw23842 0.0 1009163
30 september, thu
thu3001:00+26wsw12842 0.0 1008159
04:00+26nnw118798 0.0 100790
07:00+26ne1186100 0.4 100981
10:00+30ssw226768 1.4 1010728
13:00+31s3263100 1.6 10071054
16:00+30ssw4470100 0.1 1006453
19:00+27ssw238195 0.3 1008164
22:00+27s1283100 0.1 1010163
1 october, fri
fri101:00+26s139080 3.4 1008206
04:00+26sse139099 6.4 1007234
07:00+26ese119163 15.3 100969
10:00+30ssw2370100 1.1 1011719
13:00+29s347198 1.9 1008692
16:00+28sw337533 0.9 1007553
19:00+27s2280100 0.9 1008148
22:00+27ssw1179100 0.0 1010114
2 october, sat
sat201:00+26sse238362 0.0 1009231
04:00+25sse138840 2.6 1008230
07:00+26ese128783 3.8 1010230
10:00+29s237347 0.1 1011855
13:00+31s336294 0.1 10081218
16:00+30ssw336741 0.1 1006738
19:00+27ssw238257 0.1 1008150
22:00+26ssw238842 2.0 1010173